GFSWCAN_925_rhum_231.txt.gz
RH
96 97 94 96 97 97 94 97 99 97 98 98 97 92 92 90 80 91 85 79 81 96 98 98 96 92 87 87 95 100 97 99 100 100 99 99 99 89 94 73 87 86 96 97 98 98 95 38 39 57 61 47 41 33
96 97 97 97 99 98 89 94 100 99 98 99 99 94 91 86 84 89 86 96 87 96 100 98 99 100 98 99 99 94 86 96 94 98 100 98 100 99 98 92 74 99 91 97 86 93 47 35 50 37 49 55 44 37
93 93 97 95 94 96 91 95 99 98 96 97 99 94 92 84 81 82 91 99 85 98 100 96 97 89 94 99 100 98 98 90 96 96 98 100 99 98 98 98 84 88 70 98 68 55 39 29 28 30 36 39 34 27
95 92 97 93 92 95 96 99 99 96 94 99 98 93 90 89 96 88 88 93 71 97 100 97 99 98 98 96 98 96 93 94 96 97 99 99 99 93 99 96 98 91 67 72 69 44 40 36 37 38 37 36 35 37
97 94 95 94 96 99 99 99 96 98 100 97 98 92 94 99 86 88 88 89 71 89 99 99 98 98 99 99 100 92 89 94 99 99 99 100 99 98 96 72 87 47 48 73 78 46 54 43 40 35 37 39 42 46
98 98 98 99 100 99 98 96 97 100 100 100 99 97 86 81 73 97 100 100 90 67 97 98 98 100 99 99 98 96 96 98 99 98 100 99 67 89 96 80 29 27 32 39 45 43 46 40 37 44 49 50 54 60
96 98 100 100 99 100 100 100 100 97 92 94 91 87 85 80 97 87 90 83 94 78 97 98 98 100 99 99 99 98 95 98 98 100 100 78 71 81 95 60 34 30 35 38 40 43 53 54 70 69 74 74 78 82
100 100 100 100 100 95 90 100 98 95 90 91 92 82 78 88 99 96 98 90 95 92 96 98 99 98 99 100 100 98 100 96 90 88 77 71 68 73 86 37 29 37 43 49 59 63 70 68 67 71 72 70 72 73
99 91 95 97 92 92 90 89 97 100 99 86 80 92 100 98 99 100 100 99 89 81 97 98 86 98 98 100 100 99 97 99 72 85 66 71 71 78 50 36 50 53 60 70 74 70 70 73 71 69 71 77 79 76
99 99 93 92 97 100 100 100 96 97 100 100 98 95 100 99 99 96 97 99 99 99 99 97 78 98 96 99 100 99 100 92 91 75 55 84 71 46 50 53 65 74 74 73 84 88 79 75 76 76 72 70 60 80
97 97 96 93 92 90 85 89 95 99 98 94 100 100 100 100 96 99 99 99 99 99 99 94 76 95 95 98 98 92 95 89 89 87 83 86 91 79 56 73 70 67 66 68 70 70 68 64 68 71 69 64 57 67
90 88 85 83 81 85 95 100 99 94 95 90 93 100 100 99 100 99 99 99 99 96 98 92 95 96 99 86 92 78 75 88 78 78 92 91 91 54 69 74 70 70 69 68 62 62 60 59 55 59 60 58 66 62
77 83 87 92 98 99 97 99 87 82 78 73 93 100 100 100 98 96 96 99 93 87 86 90 98 94 83 83 88 72 80 89 72 92 88 94 78 80 81 75 72 65 66 63 62 56 56 58 49 55 55 56 70 51
86 94 98 100 99 100 100 92 94 95 88 100 99 98 97 98 95 87 83 86 90 82 80 75 76 85 82 83 84 72 77 78 90 90 92 92 83 85 77 72 68 69 65 64 67 61 66 56 52 51 41 52 57 42
92 91 94 100 100 100 100 99 91 87 93 97 95 94 94 88 93 92 76 72 72 67 63 74 82 82 90 82 79 72 81 82 78 82 92 85 78 75 75 72 73 73 72 69 61 67 59 52 49 42 41 47 41 43
100 99 100 100 100 99 96 88 84 88 79 90 88 95 96 99 91 81 77 77 61 56 67 78 86 88 81 75 72 77 71 69 97 98 90 81 80 79 76 75 70 60 56 56 50 52 49 45 44 42 44 43 44 46
89 97 100 100 96 91 84 82 81 88 100 94 99 97 95 87 85 81 71 63 57 70 87 84 70 62 78 78 64 84 92 90 92 92 86 80 80 81 78 72 64 58 56 54 48 45 45 41 39 45 51 49 48 53
99 100 100 94 88 77 72 69 78 95 99 100 99 92 90 92 76 77 83 61 62 64 64 65 69 63 77 60 97 96 92 87 84 83 83 79 75 75 67 69 59 57 54 47 44 45 44 42 46 47 48 54 59 66
100 100 92 81 77 72 71 67 75 98 100 100 89 82 85 88 79 76 75 68 60 62 75 73 61 80 90 95 91 92 87 84 85 85 79 75 71 73 66 57 54 51 47 46 45 46 43 42 45 47 58 65 76 75
79 76 73 72 77 72 63 76 71 91 98 93 79 82 86 88 82 88 81 72 68 88 83 87 96 95 94 88 82 83 84 79 78 86 88 82 70 66 64 60 56 46 44 42 44 45 48 50 49 54 67 82 78 80
76 64 75 79 81 70 61 63 69 77 73 81 71 76 84 80 85 89 83 68 87 92 98 96 96 93 86 85 79 78 80 73 76 79 84 83 74 69 66 49 40 40 46 51 57 56 52 53 57 64 74 86 73 91
49 51 54 61 60 58 65 57 65 65 74 75 72 74 84 92 89 85 65 87 93 97 96 91 88 86 85 83 81 72 69 67 68 72 68 64 70 68 67 53 51 56 59 59 52 60 61 63 66 71 81 79 83 88
44 45 49 55 78 72 69 58 56 55 72 70 67 67 81 83 71 56 86 90 94 94 88 85 84 76 79 72 67 64 62 65 71 69 64 64 60 54 55 48 51 57 68 53 53 59 68 71 77 72 87 73 91 78
49 72 79 87 82 93 76 82 61 65 67 68 66 74 79 81 65 76 83 96 95 91 85 83 78 80 76 72 73 75 59 58 57 53 52 58 65 62 48 49 55 60 58 59 60 66 74 82 80 87 82 83 90 75
67 81 84 87 83 87 89 89 76 79 79 78 79 86 86 73 82 78 88 97 90 92 88 86 84 79 78 78 77 68 51 49 55 63 48 46 47 50 52 47 50 52 53 59 68 76 82 84 80 88 78 86 90 80
88 83 80 78 86 80 80 92 89 82 85 86 84 81 82 89 85 79 93 83 93 94 88 84 82 83 78 69 73 78 60 42 45 57 45 42 42 51 68 77 76 57 54 67 79 79 79 81 82 82 82 86 96 94
90 86 67 60 66 70 83 80 74 86 88 86 91 90 92 89 88 96 95 95 93 89 79 67 65 76 75 74 67 54 43 40 44 46 40 46 49 45 44 56 67 56 56 58 76 83 84 86 84 86 82 92 94 94
75 73 87 87 85 79 88 90 87 86 83 83 84 90 85 88 99 99 95 85 80 73 73 68 61 65 75 77 63 52 48 45 42 42 45 53 58 64 68 68 69 70 72 73 75 84 86 86 90 92 94 94 88 90
84 78 76 87 85 91 96 94 86 90 94 93 91 93 97 97 99 94 90 81 66 86 87 91 94 84 83 73 62 54 47 46 59 79 88 97 94 85 72 71 74 75 74 68 82 82 82 87 87 87 86 80 81 85
82 79 87 86 87 87 98 98 98 98 91 95 87 85 90 98 99 100 99 94 95 97 97 95 94 91 95 94 98 84 68 60 50 60 88 92 85 73 79 80 69 57 82 92 89 90 86 80 75 82 85 87 97 98
90 90 81 89 96 97 98 99 97 86 90 89 83 84 93 98 98 98 99 100 100 94 92 93 93 92 94 96 94 96 97 83 74 65 70 66 72 76 79 84 89 88 85 91 97 97 96 97 88 91 98 96 95 86
93 91 91 94 97 97 95 93 85 94 83 82 82 78 97 91 96 97 97 97 93 95 91 88 86 90 85 85 86 84 82 84 84 78 78 75 78 79 76 81 90 94 87 91 92 89 96 96 83 88 96 93 92 96
85 84 86 93 94 86 92 83 73 88 84 89 97 97 97 96 95 98 95 96 99 100 90 88 91 86 88 88 92 84 83 85 84 82 76 62 54 65 78 84 87 89 92 93 89 89 93 96 94 88 85 92 94 92

GFSWCAN_925_rhum_234.txt.gz
RH
95 90 93 94 93 98 99 98 97 96 98 96 85 86 84 84 80 88 78 64 80 95 98 92 94 92 92 88 98 100 97 99 100 100 100 99 99 89 87 79 89 91 98 98 99 99 93 35 41 66 66 51 41 41
97 96 90 90 91 98 100 99 97 98 100 90 92 95 85 86 78 88 83 73 75 87 99 97 94 95 95 98 96 99 94 96 95 98 100 98 100 98 93 93 78 97 92 91 90 87 62 42 52 41 51 49 46 42
99 99 96 91 89 89 98 96 99 99 100 90 87 85 89 89 78 91 84 97 83 98 100 99 99 97 94 97 98 98 97 84 93 90 97 98 100 96 99 98 88 93 82 98 98 91 63 64 40 36 35 34 33 34
97 98 98 95 96 99 94 98 100 100 99 95 88 88 96 89 83 95 92 95 70 95 97 94 98 98 93 98 98 98 99 92 94 96 99 100 99 97 99 97 97 92 94 99 99 76 62 50 38 37 50 56 60 72
96 97 97 91 94 100 95 100 99 100 96 90 87 94 92 89 94 99 85 91 66 74 96 99 99 94 99 100 100 100 99 95 98 100 100 99 99 98 100 100 98 84 94 96 94 59 68 63 68 69 79 86 86 85
97 92 98 94 97 99 100 100 92 91 90 87 86 87 89 93 100 98 100 92 69 57 93 98 98 99 97 95 96 97 96 98 98 98 99 100 97 94 98 97 69 59 48 49 58 52 78 79 76 74 81 79 75 72
100 96 97 94 97 98 99 98 95 87 86 83 93 98 90 96 99 92 93 91 86 63 93 100 100 100 99 98 99 97 96 99 99 100 100 100 100 98 99 95 43 40 51 57 53 68 83 78 84 70 69 70 71 78
94 96 99 91 98 98 95 100 94 95 93 86 94 94 91 100 98 88 88 87 72 77 92 97 100 99 99 99 99 99 99 100 100 100 100 99 100 100 98 57 44 63 72 76 72 70 74 71 70 72 69 66 76 80
98 96 88 93 97 98 99 100 100 100 97 100 96 94 100 98 100 88 87 90 72 81 98 93 96 98 98 100 99 99 99 98 100 99 98 91 98 96 70 43 56 72 74 79 72 69 69 72 74 78 66 66 80 70
96 98 99 99 100 98 95 100 100 100 100 100 99 97 100 100 99 97 99 100 99 100 96 96 92 98 94 98 100 99 99 98 97 97 88 98 84 58 47 65 76 76 72 72 81 87 82 82 80 74 65 60 74 73
100 99 100 100 100 100 100 100 100 100 100 98 100 100 100 96 87 99 100 99 100 99 98 92 91 96 94 97 98 97 98 98 97 96 86 87 89 88 75 73 71 73 73 76 74 72 70 71 73 74 68 67 72 64
100 100 100 100 99 99 98 97 91 96 93 91 96 98 99 99 100 99 98 99 98 95 98 90 90 97 99 95 97 99 97 98 94 84 91 92 86 80 75 76 77 72 72 68 62 65 63 60 64 62 60 60 73 54
97 96 95 97 98 99 100 99 88 89 83 73 86 99 98 99 99 98 97 97 99 99 97 93 98 98 100 98 100 95 96 97 79 92 90 89 87 81 80 80 79 71 67 66 65 64 60 55 54 54 56 64 65 50
100 100 100 99 100 100 99 87 86 80 84 98 96 98 97 98 96 95 92 92 93 92 87 81 98 98 95 98 90 88 87 81 93 92 84 96 90 83 77 77 74 74 69 68 69 68 61 54 54 52 58 62 46 49
82 85 95 100 100 98 91 93 90 79 95 99 99 96 98 88 89 95 86 87 84 74 72 85 94 90 99 96 88 84 94 89 80 80 93 87 85 80 78 75 72 75 77 75 71 65 55 54 47 52 50 51 48 56
90 97 100 98 99 100 99 96 92 88 89 91 91 93 94 99 98 94 88 89 70 68 81 90 97 98 97 94 86 84 79 78 83 96 88 88 84 80 76 71 69 65 64 67 65 54 55 55 50 57 52 49 60 60
93 97 100 100 99 98 93 92 94 99 100 97 99 99 97 94 91 88 82 76 60 66 95 96 93 87 89 86 78 81 82 92 95 90 85 80 81 81 76 72 69 62 62 62 63 58 52 45 49 53 60 61 69 69
98 100 98 98 98 93 91 90 95 99 99 100 99 95 96 96 88 84 74 65 74 78 78 80 83 75 80 68 93 97 98 92 88 88 87 81 73 68 60 67 64 62 59 55 51 52 48 51 58 66 64 67 72 71
99 100 98 94 87 83 95 93 86 98 99 99 95 88 89 91 85 78 79 70 72 76 81 80 66 82 90 97 94 94 93 90 93 90 87 79 71 68 68 69 63 58 55 56 57 54 47 49 55 62 68 72 72 74
98 94 88 82 76 69 88 98 89 99 99 99 95 96 91 88 89 87 77 77 77 87 90 93 98 98 97 88 80 84 87 84 84 90 94 91 76 66 68 66 61 58 56 53 49 50 59 61 64 70 74 73 68 91
96 89 74 70 71 64 76 87 96 99 100 99 89 91 97 86 86 86 87 79 90 98 88 91 93 98 90 86 82 81 80 73 75 72 83 92 77 68 70 62 56 56 60 66 67 59 60 64 69 71 71 72 79 94
59 65 65 66 67 66 70 67 84 81 88 88 81 82 87 92 90 84 82 93 94 99 97 93 92 92 90 87 84 76 80 80 78 73 70 73 77 76 73 65 64 74 72 66 65 71 66 66 66 68 78 74 92 83
53 51 58 69 77 82 80 64 61 66 78 73 72 71 84 85 74 69 95 90 98 96 93 93 93 85 89 86 81 79 78 80 80 75 71 67 67 66 62 57 52 73 80 65 60 64 67 69 73 70 83 76 95 78
43 72 82 86 79 89 76 80 70 74 75 71 76 84 82 77 72 88 93 92 99 92 89 85 82 83 78 76 82 84 78 75 77 71 69 68 72 68 60 62 52 55 56 57 60 66 72 78 77 84 84 84 93 78
59 72 79 90 89 87 89 90 81 77 85 83 84 92 85 78 85 91 98 97 93 96 93 90 86 78 78 81 80 74 69 68 69 76 70 62 65 68 70 66 62 59 57 59 69 74 79 80 79 85 81 84 93 87
85 78 73 83 92 84 87 94 92 89 89 90 88 83 90 91 86 94 96 84 89 91 89 86 84 83 81 70 76 72 62 57 60 65 66 60 61 66 76 81 82 70 58 55 64 75 83 85 82 87 78 86 96 95
92 87 75 75 75 79 90 86 84 87 92 91 93 95 92 96 100 94 98 98 96 93 80 75 76 76 79 82 67 52 49 49 50 55 53 52 50 47 49 66 73 52 54 53 67 79 80 83 84 81 84 92 96 93
86 84 93 93 92 86 94 94 94 88 93 93 87 96 94 96 90 99 98 98 86 80 77 72 65 64 69 68 61 56 56 51 51 56 60 62 60 50 44 41 41 43 49 55 60 71 80 84 87 87 88 89 90 90
92 88 80 94 88 89 97 99 100 97 94 95 95 99 96 95 98 99 100 93 88 85 92 94 96 76 73 62 55 49 51 50 60 74 80 100 98 81 71 64 64 63 64 72 74 71 75 79 82 86 86 87 84 86
90 86 89 93 91 96 98 98 98 93 95 96 89 85 92 97 99 100 94 92 92 95 93 90 88 78 80 75 78 69 58 52 47 52 74 86 75 65 75 73 73 74 75 65 67 73 75 77 77 74 74 78 84 92
95 91 92 94 96 97 98 91 84 85 90 86 85 87 96 98 98 98 99 100 100 96 92 95 93 83 80 82 78 87 90 60 54 48 41 37 39 50 57 56 53 54 59 75 83 86 84 84 84 87 92 96 95 97
97 95 95 96 97 98 96 96 96 96 94 89 94 93 96 92 97 97 97 98 98 96 93 91 94 91 74 68 69 73 77 75 74 60 54 57 64 67 67 67 72 77 86 93 95 96 95 94 94 95 95 96 98 96
86 82 84 95 97 96 96 89 90 95 95 97 97 97 97 95 96 98 97 98 99 98 91 83 81 82 84 83 82 84 81 82 81 76 72 70 69 72 70 71 78 87 83 85 90 92 90 94 96 88 87 88 90 94

GFSWCAN_925_rhum_240.txt.gz
RH
96 96 93 96 96 94 93 95 96 94 94 89 83 73 70 84 75 91 96 72 66 88 91 88 90 86 91 87 95 100 96 100 100 100 99 88 98 84 90 82 91 95 98 98 99 100 94 45 42 64 69 50 48 52
93 99 99 100 100 94 92 90 94 98 96 95 86 80 78 91 88 83 97 83 67 81 91 94 88 89 91 90 93 98 83 94 95 98 97 96 99 95 91 93 73 89 80 89 90 88 65 82 81 69 62 62 70 82
90 94 99 100 96 98 94 97 89 98 99 96 94 91 84 92 96 87 97 96 80 99 100 99 99 87 87 84 88 98 98 91 97 99 98 99 100 94 99 97 83 84 85 94 90 92 79 91 78 64 72 86 86 83
98 98 99 99 98 98 99 98 95 96 99 96 96 94 94 94 94 87 98 97 85 95 100 96 99 94 91 84 81 87 96 94 92 96 99 100 100 94 98 96 95 89 94 96 99 97 96 93 73 84 88 82 79 73
96 99 98 97 99 100 100 99 97 100 100 99 96 95 95 92 88 86 100 94 89 87 97 99 99 94 93 88 96 92 92 96 97 99 100 99 96 98 99 99 99 91 95 99 94 82 93 96 94 79 82 82 74 73
98 100 99 89 87 93 100 100 100 99 100 100 97 94 96 88 81 98 100 99 93 78 92 98 90 100 90 89 99 95 99 99 98 99 98 97 93 99 99 99 78 80 83 77 82 80 88 98 81 69 72 74 67 63
86 97 94 87 86 100 100 100 97 95 99 95 91 90 90 83 93 95 94 92 95 75 96 98 99 99 95 95 97 98 96 98 96 99 99 99 99 99 99 96 72 70 74 80 88 86 96 96 88 70 74 61 55 60
90 88 91 87 84 91 99 100 100 92 93 95 89 87 84 89 96 99 88 93 87 83 96 98 98 98 98 99 99 98 100 99 99 99 100 99 98 99 99 78 68 64 80 86 82 70 74 72 72 78 69 63 64 62
87 91 94 98 99 92 97 100 96 94 89 84 81 86 98 99 100 99 82 92 73 89 99 96 96 97 99 99 99 99 99 99 98 99 98 97 98 98 80 76 76 82 85 84 83 78 71 72 75 80 73 72 70 67
99 98 94 100 100 99 99 100 98 97 90 88 97 100 100 100 91 98 99 99 100 100 90 96 91 97 92 98 99 98 99 98 99 95 98 98 92 73 70 69 72 77 76 78 87 84 77 70 71 77 71 69 68 71
99 100 100 100 100 100 99 100 100 100 100 99 100 100 100 98 85 99 99 99 100 99 98 95 90 96 94 96 98 97 98 97 99 95 97 96 98 88 66 73 75 72 69 66 62 65 66 60 62 67 75 69 66 64
100 100 98 99 89 99 100 100 100 99 96 93 95 98 98 96 100 99 98 99 98 93 98 96 95 97 99 92 96 98 97 99 95 89 98 97 86 77 77 76 80 72 69 73 68 70 69 60 61 69 74 71 56 51
96 90 95 98 93 98 100 100 100 94 94 84 90 100 100 99 98 97 97 98 98 98 98 97 98 93 99 95 94 90 98 97 94 97 91 85 90 89 86 85 82 74 67 68 70 68 68 68 64 67 76 69 58 53
97 96 100 88 99 100 100 98 95 92 81 99 98 97 95 98 95 95 92 93 92 93 90 77 97 94 98 98 95 98 89 97 97 96 86 92 86 90 86 81 74 70 63 64 67 69 68 62 61 61 60 69 52 60
99 97 99 100 100 99 92 94 87 78 92 98 92 97 100 92 94 94 94 96 95 79 76 95 97 94 100 97 97 88 99 96 92 87 86 83 86 90 84 75 69 66 69 64 61 66 72 66 67 67 68 61 50 60
100 100 98 99 100 100 92 86 72 82 93 90 85 95 98 98 99 98 96 96 82 76 84 90 95 99 97 92 97 91 85 88 83 91 97 90 88 84 78 70 66 63 60 61 59 66 67 64 68 74 58 54 56 60
96 97 99 100 97 87 77 79 83 98 98 96 100 97 95 95 96 97 95 95 70 72 94 97 99 90 94 97 96 91 91 85 91 100 94 85 84 81 74 71 72 66 64 59 60 60 61 60 62 65 69 66 64 69
98 100 98 99 94 82 84 95 98 98 99 99 94 99 99 97 97 98 97 79 78 91 89 92 90 99 97 87 90 88 97 100 98 94 90 83 78 75 70 73 69 66 62 59 58 60 66 69 60 65 66 65 74 78
100 100 98 94 85 92 99 99 95 97 99 94 99 94 94 97 90 91 88 75 89 88 89 88 84 89 86 84 85 96 97 96 96 92 86 81 77 76 75 72 70 66 61 61 60 64 65 62 62 62 68 72 71 78
98 96 92 80 69 94 100 99 98 97 99 100 99 99 99 99 97 94 86 96 97 98 97 97 91 92 96 97 97 94 91 88 88 94 94 88 78 74 73 70 69 64 64 65 65 61 66 68 62 60 63 67 70 83
97 99 92 83 80 84 98 99 99 98 99 98 99 98 99 99 98 98 99 99 99 99 99 98 99 98 96 96 91 88 88 85 85 83 87 91 78 73 69 69 67 68 70 72 72 73 68 70 63 62 65 65 65 76
98 94 91 89 95 86 95 90 97 99 98 99 99 99 98 98 99 99 100 99 99 99 99 98 97 95 95 94 92 85 83 83 80 79 78 76 79 77 76 74 71 78 76 74 68 73 67 59 60 65 67 68 82 84
78 74 78 95 98 98 100 99 99 100 97 98 99 98 98 98 99 98 98 99 99 98 97 95 94 90 92 86 84 83 79 76 80 80 76 76 73 74 76 72 71 76 83 74 58 55 58 57 61 66 70 77 91 82
62 77 89 89 87 98 98 99 99 98 98 98 97 97 97 98 98 92 92 98 99 95 94 94 89 92 85 81 85 86 83 78 77 79 74 72 79 81 74 72 64 58 57 58 56 55 56 58 64 71 76 78 93 90
65 75 83 93 89 85 95 97 94 83 97 90 86 94 90 80 95 96 90 99 97 98 97 92 92 88 92 96 93 88 78 75 77 81 72 69 79 80 78 69 61 52 48 55 67 60 60 63 68 74 79 81 84 91
80 79 71 87 94 81 85 96 96 93 90 93 90 90 86 86 91 93 87 91 96 98 96 92 91 92 92 85 93 92 85 72 72 79 79 64 66 72 82 86 95 80 57 44 49 60 65 68 73 77 84 86 82 86
83 82 85 84 82 80 90 86 77 84 91 90 94 93 86 93 98 88 95 98 97 96 84 80 78 84 88 89 84 77 73 67 63 63 63 60 53 48 46 65 76 49 53 54 52 52 59 68 75 80 81 83 83 82
89 86 93 93 94 82 94 94 94 92 94 92 85 99 97 90 96 97 99 99 93 82 81 76 70 73 79 79 76 73 69 61 60 64 64 66 64 57 48 45 46 46 48 49 53 56 58 61 67 74 80 83 82 82
97 86 75 91 89 95 97 98 95 94 96 87 89 89 90 94 97 98 100 98 87 84 91 93 94 78 80 78 75 66 63 64 73 81 84 93 92 67 60 54 48 45 50 56 59 58 58 62 67 75 78 83 84 88
95 76 88 95 94 97 98 97 97 97 94 97 93 94 92 97 97 99 98 91 89 91 86 85 81 74 86 83 90 81 71 61 52 56 81 84 73 52 52 51 47 42 43 49 54 62 74 80 81 85 90 92 93 92
86 89 94 95 97 97 97 96 87 89 96 90 94 96 97 97 97 98 99 98 92 89 89 90 84 75 74 80 77 83 81 57 50 42 40 39 41 43 45 47 47 47 48 52 58 67 73 76 81 85 90 92 86 78
94 96 93 96 97 97 96 97 98 97 97 95 97 95 93 93 97 97 97 98 94 94 91 81 84 80 67 62 58 54 52 49 49 45 44 44 41 46 52 59 63 62 60 64 71 74 69 66 70 74 74 74 79 89
93 95 97 97 97 98 92 93 94 96 94 96 96 98 100 98 98 97 96 98 98 95 84 75 69 66 63 62 64 65 59 54 52 51 48 38 34 37 53 63 67 70 71 73 66 63 69 78 83 88 92 93 93 91

GFSWCAN_925_rhum_246.txt.gz
RH
88 91 92 88 87 86 80 83 84 78 68 65 63 67 70 74 75 82 89 77 65 75 68 61 60 58 65 62 80 95 83 90 94 97 88 97 76 51 49 43 62 65 73 84 78 100 85 40 39 67 60 50 46 42
85 87 88 84 88 88 83 81 82 78 73 69 66 71 78 82 82 82 86 87 74 71 98 87 84 84 83 77 64 80 60 71 68 74 73 67 71 61 53 64 45 62 50 63 61 60 53 40 44 51 51 56 54 62
90 89 88 87 88 88 87 87 86 81 80 78 79 76 81 84 81 83 83 90 92 99 99 89 85 89 84 91 92 76 81 69 74 78 71 71 77 64 70 60 46 49 54 67 62 49 53 55 53 53 52 60 64 73
97 94 94 93 93 92 92 91 90 84 82 82 84 86 84 87 80 80 88 97 86 96 100 100 87 92 87 88 90 83 77 85 80 82 84 89 83 72 70 67 69 60 67 70 91 66 52 48 52 54 62 69 84 84
100 100 98 99 96 95 95 92 90 91 91 90 86 87 86 84 82 85 88 98 85 88 100 100 89 88 92 90 82 78 70 72 78 88 98 96 92 90 97 95 96 71 70 82 75 45 52 50 56 61 76 82 81 64
95 94 97 99 99 96 96 98 95 92 92 89 90 87 88 86 75 91 99 96 93 81 99 100 94 88 94 89 84 78 75 77 74 86 86 83 76 77 93 81 45 42 44 41 48 43 63 66 63 62 66 67 60 55
84 98 100 100 100 98 94 99 99 95 95 91 89 92 91 81 85 82 93 92 95 86 98 99 99 91 89 88 90 89 83 78 70 80 84 68 72 79 99 77 40 36 37 40 43 75 93 86 79 69 70 62 56 45
86 86 99 100 100 99 100 100 98 90 91 97 88 86 88 72 84 84 78 81 91 95 94 100 98 100 91 96 96 82 88 82 82 75 85 80 65 88 91 48 46 45 40 42 43 61 52 64 69 78 67 55 45 37
94 100 98 100 100 100 95 99 98 91 89 97 85 85 92 90 90 84 82 98 85 88 100 90 78 93 96 90 92 93 82 96 73 87 71 65 61 82 57 41 39 38 42 42 44 55 60 69 68 64 54 48 41 35
99 100 100 100 96 89 85 99 98 98 98 96 93 96 100 94 74 84 90 98 100 100 90 74 56 97 78 84 93 93 89 80 90 69 58 77 65 43 34 34 39 37 35 43 64 71 71 75 71 59 52 42 36 34
92 100 100 100 95 89 96 89 87 88 93 98 100 100 99 87 84 92 100 99 100 99 98 58 57 91 72 80 90 70 87 76 82 68 81 76 62 62 38 38 34 34 34 40 47 41 56 61 64 57 50 42 37 34
98 100 100 100 100 100 97 98 99 98 96 95 90 97 94 94 100 100 99 99 98 94 94 62 70 67 76 65 78 86 86 81 84 76 94 81 46 36 32 33 36 35 34 38 48 49 56 57 60 56 50 45 38 33
100 100 100 100 100 100 100 99 96 99 93 97 95 100 99 100 100 98 92 93 85 94 76 73 91 82 87 74 77 79 93 90 68 95 71 49 44 46 45 51 48 45 51 54 54 56 58 60 61 55 50 44 37 38
99 100 100 100 100 99 99 98 100 98 89 99 100 97 97 98 82 66 62 58 67 67 68 66 70 72 74 78 80 91 70 74 93 86 58 67 55 46 45 58 60 61 59 58 57 58 60 60 57 53 46 44 42 58
100 100 100 100 100 91 96 98 98 94 90 100 99 96 93 77 64 65 51 63 62 58 59 61 71 70 84 95 79 70 91 86 69 51 55 53 46 52 57 61 59 61 69 61 57 58 69 66 66 67 64 50 69 69
99 100 96 100 92 92 100 99 97 90 95 89 83 91 84 84 95 87 71 73 57 54 54 60 82 85 84 72 85 85 71 68 56 61 55 59 58 60 59 63 61 60 61 58 56 63 65 70 65 63 50 55 60 64
97 98 96 90 99 100 99 98 97 98 100 86 95 78 75 76 90 86 74 66 52 60 76 71 85 71 63 74 70 58 70 61 59 61 62 59 59 63 64 66 74 64 60 57 58 54 56 48 51 52 53 59 56 65
98 99 98 100 100 100 98 97 99 100 100 82 86 88 80 73 84 82 69 59 59 54 56 56 61 75 80 65 57 54 62 55 62 62 66 66 63 63 63 63 65 61 57 54 48 46 43 48 44 44 44 49 50 57
99 100 100 99 96 95 100 99 94 96 100 91 86 83 75 78 67 68 67 59 52 53 67 59 63 60 59 51 58 65 65 63 67 73 72 68 65 67 65 63 61 58 54 49 42 43 45 38 37 38 42 45 46 49
100 100 100 90 74 87 100 100 91 78 90 94 90 86 84 82 76 79 74 69 64 62 70 67 56 52 58 67 64 63 64 66 67 76 80 76 71 66 63 61 57 53 48 41 41 43 38 37 38 40 43 44 46 51
98 99 95 88 92 79 90 100 98 94 93 95 89 88 92 85 84 86 82 69 74 61 52 60 67 79 78 78 75 71 71 62 59 57 67 80 71 65 63 59 52 49 49 46 44 40 38 38 41 43 56 61 65 63
99 95 92 87 78 80 92 91 83 84 89 95 85 82 94 93 91 95 89 79 68 59 74 75 76 75 78 78 75 72 73 69 66 67 67 72 71 68 63 59 55 60 51 56 43 51 41 40 45 52 68 84 76 76
89 89 83 69 88 91 100 90 84 71 86 94 74 86 93 93 94 90 94 78 73 78 78 76 75 75 72 80 79 77 76 70 67 67 72 67 67 67 64 58 57 64 62 48 47 53 50 51 61 70 79 80 80 86
62 70 90 87 79 99 95 92 76 76 85 83 77 87 85 94 100 96 90 82 75 79 82 80 73 78 80 79 76 74 74 70 68 71 71 69 68 66 62 58 58 56 53 53 54 60 71 73 76 78 82 82 84 84
76 85 84 92 83 90 93 91 87 76 88 84 82 87 89 84 88 86 78 74 89 92 88 82 76 72 74 77 74 71 74 71 68 71 71 68 66 63 61 59 58 54 60 71 73 76 79 85 78 81 82 82 83 84
77 82 76 82 86 83 79 90 90 88 82 88 84 80 80 87 92 84 65 77 88 91 96 94 87 80 75 69 76 76 74 72 69 67 67 67 67 74 76 72 68 66 62 68 76 77 79 80 81 82 81 85 85 83
80 89 80 70 70 76 87 85 78 82 88 87 85 92 87 91 88 79 84 84 84 83 84 80 74 70 72 73 76 78 76 72 69 69 69 66 64 65 69 73 68 58 69 74 74 75 72 76 79 81 81 85 89 87
83 77 88 87 86 81 91 90 91 91 88 76 77 88 87 78 78 89 95 95 93 89 87 83 79 76 77 82 88 90 92 92 81 82 82 81 85 82 61 53 57 47 56 54 56 56 67 77 81 83 84 86 91 95
88 72 71 93 90 90 90 90 90 89 84 78 89 86 87 84 88 88 92 99 94 87 87 89 97 95 93 91 91 90 89 80 75 76 72 75 74 76 74 47 56 58 55 55 45 40 47 71 86 88 89 90 93 99
88 68 83 90 89 89 90 91 92 93 87 82 74 77 80 86 93 100 99 95 90 94 92 92 93 87 86 84 91 95 98 83 64 67 80 76 73 75 79 80 70 62 56 53 59 60 56 61 64 76 87 92 99 99
76 78 83 91 92 93 94 96 94 91 87 86 83 80 84 89 94 99 99 100 98 97 94 90 88 86 82 81 78 79 79 59 46 44 41 51 48 53 63 54 54 61 73 74 65 72 76 83 87 92 93 92 93 94
85 86 83 84 91 94 94 89 89 90 92 84 91 87 88 85 90 92 99 100 92 88 92 87 86 89 94 90 75 63 58 46 42 39 44 43 49 52 50 46 48 59 70 71 84 86 77 90 93 92 88 86 90 91
88 83 83 84 89 90 89 86 85 91 89 89 91 89 91 88 90 91 97 98 100 94 91 97 98 84 74 64 57 55 43 43 43 42 41 39 41 46 50 47 48 52 57 70 75 80 92 93 88 85 85 86 88 87